{"data":{"norad_id":55486,"epoch":"2026-09-20T10:42:27.636480Z","epoch_age_seconds":104758,"freshness":"FRESH","line1":"1 55486U 23015AP  26263.44615320  .00008073  00000+0  16543-3 0  9992","line2":"2 55486  43.0002 316.9429 0001069 300.5254  59.5499 15.46424703200412","mean_motion":15.46424703,"eccentricity":0.0001069,"inclination_deg":43.0002,"raan_deg":316.9429,"arg_perigee_deg":300.5254,"mean_anomaly_deg":59.5499,"bstar":0.00016543,"rev_number":20041,"period_min":93.118015846905,"perigee_km":426.46758860343,"apogee_km":427.92256860184,"semimajor_km":6805.3320786026,"source":"CELESTRAK","updated_at":"2026-09-21T09:00:33.236375Z"}}